Weather in Mostovskoye

Russia / Krasnoyarsk Krai     56°45′36″N   92°45′02″E
temp.,
°C
wind,
m/s
gust,
m/s
humid.,
%
clouds,
%
prec.,
mm/h
press.,
hPa
HPBL,
m
28 november, sun
sun2801:00−8sw51392100 0.6 10281089
04:00−7sw51492100 0.6 10251284
07:00−6sw51493100 1.7 10221384
10:00−7wsw51291100 1.1 10231137
13:00−6wsw51290100 1.7 1023960
16:00−6wsw51289100 0.3 1025786
19:00−6wsw51492100 0.6 1026791
22:00−6wsw6149096 0.4 1027823
29 november, mon
mon2901:00−7wsw6159098 0.6 1028770
04:00−7wsw6148990 0.3 1030756
07:00−8wsw51390100 0.3 1032646
10:00−7wsw51289100 0.1 1033640
13:00−6wsw41289100 0.1 1033621
16:00−6wsw41290100 0.1 1031633
19:00−6wsw41392100 0.2 1030642
22:00−5wsw51389100 0.1 1029727
30 november, tue
tue3001:00−6wsw51484100 0.1 1027621
04:00−6wsw51582100 0.0 1026606
07:00−5wsw61776100 0.0 1024665
10:00−5wsw61870100 0.0 1024713
13:00−4wsw7186897 0.0 1022787
16:00−4wsw61770100 0.0 1022848
19:00−5wsw61878100 0.0 1022817
22:00−6wsw61789100 0.2 1023734
1 december, wed
wed101:00−6wsw6169093 0.4 1023782
04:00−6w61590100 0.1 1024760
07:00−6wsw51490100 0.2 1025600
10:00−5wsw41293100 0.2 1026534
13:00−4wsw41292100 0.4 1027539
16:00−5wsw41280100 0.1 1026438
19:00−5wsw41574100 0.1 1025498
22:00−4wsw51769100 0.0 1023598
2 december, thu
thu201:00−3wsw61868100 0.0 1022662
04:00−3wsw61869100 0.0 1020667
07:00−3wsw51870100 0.0 1020616
10:00−3wsw61968100 0.0 1020630
13:00−3wsw61968100 0.0 1019680
16:00−3wsw61869100 0.0 1018637
19:00−3wsw61870100 0.0 1018625
22:00−3wsw51871100 0.0 1018519